Tracking 29069 objects as of 18-Jul-2024
HD Live streaming from Space Station
objects crossing your sky now

STARLINK-5119

Track STARLINK-5119 now!
10-day predictions
STARLINK-5119 is classified as:


NORAD ID: 53986
Int'l Code: 2022-125Y
Perigee: 546.0 km
Apogee: 547.8 km
Inclination: 53.2 °
Period: 95.4 minutes
Semi major axis: 6917 km
RCS: Unknown
Launch date: October 5, 2022
Source: United States (US)
Launch site: AIR FORCE WESTERN TEST RANGE (AFWTR)
Your satellite tracking list
Your tracking list is empty




NASA's NSSDC Master Catalog

Two Line Element Set (TLE):
1 53986U 22125Y   24199.79441985 -.00002142  00000-0 -11654-3 0  9996
2 53986  53.2185  16.8371 0001303  80.1349 279.9791 15.08834951 99034
Source of the keplerian elements: AFSPC